Terminalur

Vevmynd ímóti Terminalinum

Ímóti Miđvági Ímóti Sřrvági


Veđriđ á flogvřllinum (metar):

EKVG 230520Z AUTO 31014KT 9999NDV FEW048/// FEW059/// 03/M02 Q0992

METAR / TAF frá DMI fyri Vágar                      Veđurtíđindi frá Vága Floghavn

Atlantic Airways

Atlantic Airways heimasíđa

Tíđindi    .

26. januar 2015
Áheitan viđvíkjandi lasaraljós

Veđriđ

Kunning

Vevmyndir

Terminalur